Time,TemperatureF,DewpointF,PressureIn,WindDirection,WindDirectionDegrees,WindSpeedMPH,WindSpeedGustMPH,Humidity,HourlyPrecipIn,Conditions,Clouds,dailyrainin,SoftwareType,DateUTC
2013-08-29 00:18:00,67.0,65.0,29.91,SE,126,0.0,5.0,94,0.00,,,0.00,,2013-08-29 04:18:00,
2013-08-29 00:28:00,67.0,66.0,29.91,East,88,0.0,0.0,95,0.00,,,0.00,,2013-08-29 04:28:00,
2013-08-29 00:54:00,67.0,66.0,29.91,NE,35,0.0,0.0,95,0.00,,,0.00,,2013-08-29 04:54:00,
2013-08-29 01:23:00,67.0,66.0,29.90,NNE,31,0.0,0.0,95,0.00,,,0.00,,2013-08-29 05:23:00,
2013-08-29 01:52:00,67.0,66.0,29.89,NNE,30,0.0,0.0,95,0.00,,,0.00,,2013-08-29 05:52:00,
2013-08-29 02:12:00,67.0,66.0,29.89,NNE,30,0.0,0.0,96,0.00,,,0.00,,2013-08-29 06:12:00,
2013-08-29 02:22:00,67.0,66.0,29.89,NNE,30,0.0,0.0,96,0.00,,,0.00,,2013-08-29 06:22:00,
2013-08-29 02:52:00,67.0,66.0,29.88,NNE,30,0.0,0.0,96,0.00,,,0.00,,2013-08-29 06:52:00,
2013-08-29 03:22:00,67.0,66.0,29.89,NNE,30,0.0,0.0,96,0.00,,,0.00,,2013-08-29 07:22:00,
2013-08-29 03:53:00,67.0,66.0,29.88,NE,54,0.0,0.0,96,0.00,,,0.00,,2013-08-29 07:53:00,
2013-08-29 04:22:00,67.0,66.0,29.89,North,6,0.0,5.0,97,0.00,,,0.00,,2013-08-29 08:22:00,
2013-08-29 04:52:00,67.0,66.0,29.91,ENE,75,0.0,1.0,96,0.00,,,0.00,,2013-08-29 08:52:00,
2013-08-29 05:12:00,67.0,66.0,29.92,East,81,3.0,7.0,96,0.00,,,0.00,,2013-08-29 09:12:00,
2013-08-29 05:22:00,67.0,66.0,29.92,ENE,76,1.0,6.0,96,0.00,,,0.00,,2013-08-29 09:22:00,
2013-08-29 05:55:00,67.0,66.0,29.92,East,79,2.0,7.0,97,0.00,,,0.00,,2013-08-29 09:55:00,
2013-08-29 06:24:00,67.0,66.0,29.93,ENE,72,1.0,6.0,97,0.00,,,0.00,,2013-08-29 10:24:00,
2013-08-29 06:53:00,67.0,66.0,29.93,ENE,61,2.0,5.0,97,0.00,,,0.00,,2013-08-29 10:53:00,
2013-08-29 07:12:00,67.0,66.0,29.94,NE,45,2.0,8.0,97,0.00,,,0.00,,2013-08-29 11:12:00,
2013-08-29 07:22:00,67.0,66.0,29.94,ENE,70,4.0,10.0,96,0.00,,,0.00,,2013-08-29 11:22:00,
2013-08-29 07:52:00,67.0,66.0,29.95,ENE,57,1.0,13.0,95,0.00,,,0.00,,2013-08-29 11:52:00,
2013-08-29 08:22:00,67.0,66.0,29.96,NE,50,6.0,10.0,96,0.00,,,0.00,,2013-08-29 12:22:00,
2013-08-29 08:52:00,67.0,66.0,29.97,ENE,67,3.0,12.0,97,0.00,,,0.00,,2013-08-29 12:52:00,
2013-08-29 09:12:00,66.0,65.0,29.97,ENE,60,2.0,12.0,96,0.00,,,0.00,,2013-08-29 13:12:00,
2013-08-29 09:22:00,66.0,64.0,29.97,NE,51,4.0,12.0,94,0.00,,,0.00,,2013-08-29 13:22:00,
2013-08-29 09:42:00,66.0,64.0,29.98,ENE,57,5.0,12.0,93,0.00,,,0.00,,2013-08-29 13:42:00,
2013-08-29 09:52:00,66.0,64.0,29.98,ENE,78,2.0,12.0,93,0.00,,,0.00,,2013-08-29 13:52:00,
2013-08-29 10:11:00,66.0,64.0,29.98,ENE,72,1.0,13.0,92,0.00,,,0.00,,2013-08-29 14:11:00,
2013-08-29 10:22:00,65.0,62.0,29.98,ENE,65,7.0,16.0,90,0.00,,,0.00,,2013-08-29 14:22:00,
2013-08-29 10:52:00,65.0,62.0,29.98,NE,53,5.0,14.0,90,0.00,,,0.00,,2013-08-29 14:52:00,
2013-08-29 11:22:00,65.0,62.0,30.00,ENE,59,7.0,15.0,89,0.00,,,0.00,,2013-08-29 15:22:00,
2013-08-29 11:53:00,65.0,61.0,30.01,NE,44,5.0,14.0,88,0.00,,,0.00,,2013-08-29 15:53:00,
2013-08-29 12:24:00,65.0,61.0,30.01,East,81,6.0,17.0,86,0.00,,,0.00,,2013-08-29 16:24:00,
2013-08-29 12:43:00,65.0,61.0,30.00,ENE,69,7.0,13.0,86,0.00,,,0.00,,2013-08-29 16:43:00,
2013-08-29 12:53:00,65.0,61.0,30.00,ENE,60,4.0,13.0,86,0.00,,,0.00,,2013-08-29 16:53:00,
2013-08-29 13:23:00,65.0,61.0,30.00,NE,45,4.0,18.0,86,0.00,,,0.00,,2013-08-29 17:23:00,
2013-08-29 13:52:00,65.0,61.0,30.01,ENE,59,2.0,8.0,88,0.00,,,0.00,,2013-08-29 17:52:00,
2013-08-29 14:22:00,64.0,61.0,30.00,ENE,68,3.0,9.0,91,0.00,,,0.00,,2013-08-29 18:22:00,
2013-08-29 14:52:00,64.0,62.0,30.00,ENE,73,1.0,11.0,92,0.00,,,0.00,,2013-08-29 18:52:00,
2013-08-29 15:11:00,64.0,62.0,30.00,NE,52,1.0,11.0,92,0.00,,,0.00,,2013-08-29 19:11:00,
2013-08-29 15:22:00,64.0,61.0,30.00,NE,38,0.0,13.0,91,0.00,,,0.00,,2013-08-29 19:22:00,
2013-08-29 15:52:00,64.0,61.0,29.99,ENE,70,3.0,8.0,89,0.00,,,0.00,,2013-08-29 19:52:00,
2013-08-29 16:13:00,65.0,61.0,29.99,NNE,13,0.0,7.0,87,0.00,,,0.00,,2013-08-29 20:13:00,
2013-08-29 16:22:00,65.0,61.0,29.99,ENE,66,3.0,10.0,86,0.00,,,0.00,,2013-08-29 20:22:00,
2013-08-29 16:52:00,65.0,60.0,29.99,East,81,3.0,11.0,85,0.00,,,0.00,,2013-08-29 20:52:00,
2013-08-29 17:12:00,64.0,59.0,30.00,ENE,68,2.0,10.0,85,0.00,,,0.00,,2013-08-29 21:12:00,
2013-08-29 17:22:00,64.0,59.0,30.00,ESE,109,0.0,8.0,85,0.00,,,0.00,,2013-08-29 21:22:00,
2013-08-29 17:44:00,64.0,59.0,30.00,East,90,0.0,6.0,85,0.00,,,0.00,,2013-08-29 21:44:00,
2013-08-29 17:54:00,64.0,59.0,30.00,ENE,61,0.0,0.0,85,0.00,,,0.00,,2013-08-29 21:54:00,
2013-08-29 18:14:00,64.0,59.0,30.00,East,97,0.0,0.0,85,0.00,,,0.00,,2013-08-29 22:14:00,
2013-08-29 18:24:00,64.0,59.0,30.00,East,80,0.0,0.0,85,0.00,,,0.00,,2013-08-29 22:24:00,
2013-08-29 18:53:00,64.0,59.0,29.99,ENE,69,0.0,0.0,85,0.00,,,0.00,,2013-08-29 22:53:00,
2013-08-29 19:22:00,64.0,59.0,29.98,East,93,0.0,0.0,85,0.00,,,0.00,,2013-08-29 23:22:00,
2013-08-29 19:53:00,63.0,59.0,29.98,ESE,113,0.0,0.0,86,0.00,,,0.00,,2013-08-29 23:53:00,
2013-08-29 20:22:00,63.0,59.0,29.98,East,85,0.0,0.0,86,0.00,,,0.00,,2013-08-30 00:22:00,
2013-08-29 20:52:00,63.0,59.0,29.99,East,86,0.0,0.0,87,0.00,,,0.00,,2013-08-30 00:52:00,
2013-08-29 21:12:00,63.0,59.0,29.99,East,86,0.0,0.0,87,0.00,,,0.00,,2013-08-30 01:12:00,
2013-08-29 21:22:00,63.0,59.0,29.99,East,88,0.0,0.0,87,0.00,,,0.00,,2013-08-30 01:22:00,
2013-08-29 21:52:00,63.0,59.0,30.00,North,349,0.0,0.0,88,0.00,,,0.00,,2013-08-30 01:52:00,
2013-08-29 22:22:00,63.0,60.0,30.00,NW,311,0.0,0.0,89,0.00,,,0.00,,2013-08-30 02:22:00,
2013-08-29 22:42:00,63.0,60.0,29.99,NW,311,0.0,0.0,89,0.00,,,0.00,,2013-08-30 02:42:00,
2013-08-29 22:52:00,63.0,59.0,29.99,NW,311,0.0,0.0,88,0.00,,,0.00,,2013-08-30 02:52:00,
2013-08-29 23:22:00,63.0,60.0,29.98,NW,311,0.0,0.0,89,0.00,,,0.00,,2013-08-30 03:22:00,
2013-08-29 23:55:00,63.0,60.0,29.97,West,278,0.0,0.0,91,0.00,,,0.00,,2013-08-30 03:55:00,